GW4332 Weather Reports


time (UTC)temp
C
wind
direction
speed
KPH
gust
KPH
rain 1hr
cm
rain 24hr
cm
rain mn
cm
humidity
%
barometer
mb
20260903084030 18 216 16.1 25.7 0.00 0.00 0.15 94 1014.1
20260903083030 18 210 19.3 33.8 0.00 0.00 0.15 94 1014.0
20260903082030 18 227 22.5 33.8 0.00 0.00 0.15 94 1014.1
20260903081030 18 221 22.5 33.8 0.00 0.00 0.15 94 1014.1
20260903080030 18 229 24.1 35.4 0.00 0.00 0.15 94 1014.1
20260903075030 18 228 24.1 37.0 0.00 0.00 0.15 94 1014.0
20260903074029 18 235 29.0 40.2 0.00 0.00 0.15 94 1013.8
20260903073030 18 235 27.4 45.1 0.00 0.00 0.15 94 1013.9
20260903072030 18 216 17.7 30.6 0.00 0.00 0.15 94 1014.1
20260903071030 18 198 14.5 25.7 0.00 0.00 0.10 94 1014.2
20260903070030 17 197 12.9 22.5 0.00 0.00 0.08 93 1014.1
20260903065030 17 199 9.7 22.5 0.00 0.00 0.08 93 1014.0
20260903064030 17 185 12.9 25.7 0.00 0.00 0.05 93 1014.0
20260903063030 17 198 16.1 27.4 0.00 0.00 0.05 93 1013.9
20260903062030 17 209 14.5 29.0 0.00 0.00 0.05 92 1014.0
20260903061030 17 194 11.3 25.7 0.00 0.00 0.05 92 1013.8
20260903060030 17 181 9.7 30.6 0.00 0.00 0.03 92 1013.9
20260903055030 17 205 12.9 20.9 0.00 0.00 0.03 91 1014.0
20260903054029 17 203 12.9 25.7 0.00 0.00 0.03 91 1014.2
20260903053033 17 191 12.9 24.1 0.00 0.00 0.03 91 1014.2
20260903052030 17 196 14.5 27.4 0.00 0.00 0.00 90 1014.2
20260903051030 17 208 14.5 25.7 0.00 0.00 0.00 90 1014.3
20260903050030 17 188 14.5 32.2 0.00 0.00 0.00 89 1014.0
20260903045030 17 180 14.5 27.4 0.00 0.00 0.00 89 1013.9
20260903044030 17 190 11.3 27.4 0.00 0.00 0.00 89 1014.1
20260903043030 17 202 12.9 25.7 0.00 0.00 0.00 88 1014.1
20260903042031 17 193 12.9 25.7 0.00 0.00 0.00 87 1014.2
20260903041029 17 204 14.5 29.0 0.00 0.00 0.00 87 1014.2
20260903040031 17 200 16.1 32.2 0.00 0.00 0.00 86 1014.3
20260903035030 17 196 12.9 25.7 0.00 0.00 0.00 85 1014.4
20260903034030 17 184 14.5 29.0 0.00 0.00 0.00 85 1014.4
20260903033029 17 194 14.5 25.7 0.00 0.00 0.00 84 1014.6
20260903032030 17 193 14.5 29.0 0.00 0.00 0.00 84 1014.6
20260903031030 17 212 16.1 32.2 0.00 0.00 0.00 84 1014.7
20260903030030 17 201 14.5 24.1 0.00 0.00 0.00 83 1014.5
20260903025029 17 193 14.5 25.7 0.00 0.00 0.00 83 1014.7
20260903024030 17 209 14.5 25.7 0.00 0.00 0.00 82 1015.0
20260903023030 17 203 9.7 20.9 0.00 0.00 0.00 83 1015.0
20260903022030 17 208 9.7 17.7 0.00 0.00 0.00 82 1015.1
20260903021030 17 194 8.0 19.3 0.00 0.00 0.00 82 1015.1
20260903020030 17 192 11.3 19.3 0.00 0.00 0.00 82 1015.1
20260903015030 17 193 11.3 20.9 0.00 0.00 0.00 81 1015.1
20260903014030 17 194 9.7 22.5 0.00 0.00 0.00 81 1015.2
20260903013029 17 184 8.0 19.3 0.00 0.00 0.00 80 1015.2
20260903012030 17 194 6.4 25.7 0.00 0.00 0.00 80 1015.3
20260903011030 17 192 11.3 22.5 0.00 0.00 0.00 80 1015.5
20260903010030 17 202 11.3 22.5 0.00 0.00 0.00 80 1015.6
20260903005030 17 190 12.9 24.1 0.00 0.00 0.00 81 1015.8
20260903004030 17 195 11.3 22.5 0.00 0.00 0.00 81 1015.8
20260903003030 17 209 11.3 24.1 0.00 0.00 0.00 81 1015.9
20260903002030 17 198 12.9 30.6 0.00 0.00 0.00 82 1016.0
20260903001030 17 202 11.3 25.7 0.00 0.00 0.00 84 1016.0
20260903000030 17 191 8.0 20.9 0.00 0.00 0.00 85 1016.0
20260902235029 17 188 6.4 19.3 0.00 0.00 0.00 85 1016.1
20260902234030 17 162 3.2 12.9 0.00 0.00 0.00 86 1016.2
20260902233031 17 195 4.8 12.9 0.00 0.00 0.00 86 1016.4
20260902232030 17 174 4.8 12.9 0.00 0.00 0.00 86 1016.6
20260902231030 17 196 8.0 16.1 0.00 0.00 0.00 87 1016.8
20260902230030 17 192 11.3 22.5 0.00 0.00 0.00 87 1017.1
20260902225029 17 190 9.7 25.7 0.00 0.00 0.00 88 1017.1
20260902224030 17 138 1.6 6.4 0.00 0.00 0.00 88 1017.3
20260902223030 17 140 3.2 9.7 0.00 0.00 0.00 88 1017.3
20260902222030 17 137 3.2 8.0 0.00 0.00 0.00 87 1017.4
20260902221030 17 141 1.6 6.4 0.00 0.00 0.00 87 1017.6
20260902220030 17 139 1.6 6.4 0.00 0.00 0.05 87 1017.7
20260902215030 17 178 3.2 12.9 0.00 0.00 0.05 86 1017.7
20260902214030 17 191 6.4 16.1 0.00 0.00 0.05 86 1017.9
20260902213030 17 181 8.0 19.3 0.00 0.00 0.03 86 1018.1
20260902212029 17 193 6.4 14.5 0.00 0.00 0.03 86 1018.1
20260902211030 17 195 4.8 12.9 0.00 0.00 0.03 85 1017.9
20260902210030 17 188 4.8 12.9 0.00 0.00 0.03 85 1018.0
20260902205030 17 143 1.6 11.3 0.00 0.00 0.03 84 1017.9
20260902204030 17 145 3.2 8.0 0.00 0.00 0.03 84 1018.1
20260902203030 17 142 3.2 9.7 0.00 0.00 0.03 83 1018.1
20260902202029 17 159 1.6 8.0 0.00 0.00 0.03 82 1018.3
20260902201030 17 155 1.6 6.4 0.00 0.00 0.00 81 1018.4
20260902200030 17 184 3.2 8.0 0.00 0.00 0.00 81 1018.4
20260902195030 17 199 8.0 16.1 0.00 0.00 0.00 80 1018.5
20260902194030 17 214 8.0 16.1 0.00 0.00 0.00 80 1018.6
20260902193030 17 230 14.5 22.5 0.00 0.00 0.00 79 1018.5
20260902192029 17 239 22.5 43.5 0.00 0.00 0.00 78 1018.6
20260902191030 17 225 35.4 49.9 0.00 0.00 0.00 82 1018.6
20260902190030 18 193 9.7 19.3 0.00 0.00 0.00 77 1018.8
20260902185030 18 200 6.4 14.5 0.00 0.00 0.00 76 1018.8
20260902184030 18 200 8.0 16.1 0.00 0.00 0.00 76 1018.6
20260902183030 18 189 6.4 12.9 0.00 0.00 0.00 76 1018.6
20260902182029 18 204 8.0 12.9 0.00 0.00 0.00 76 1018.6
20260902181030 18 204 8.0 16.1 0.00 0.00 0.00 76 1018.6
20260902180030 18 201 9.7 19.3 0.00 0.00 0.00 75 1018.6
20260902175030 19 209 11.3 22.5 0.00 0.00 0.00 75 1018.7
20260902174030 19 209 11.3 20.9 0.00 0.00 0.00 76 1018.6
20260902173030 19 213 11.3 19.3 0.00 0.00 0.00 76 1018.7
20260902172029 19 219 12.9 20.9 0.00 0.00 0.00 76 1018.7
20260902171030 19 218 12.9 22.5 0.00 0.00 0.00 76 1018.7
20260902170030 19 227 17.7 25.7 0.00 0.00 0.00 76 1018.7
20260902165030 19 218 16.1 24.1 0.00 0.00 0.00 77 1018.6
20260902164030 19 228 16.1 24.1 0.00 0.00 0.00 77 1018.7
20260902163030 19 236 17.7 24.1 0.00 0.00 0.00 76 1018.8
20260902162030 19 236 19.3 25.7 0.00 0.00 0.00 76 1018.7
20260902161030 19 239 19.3 24.1 0.00 0.00 0.00 76 1018.8
20260902160030 20 236 19.3 25.7 0.00 0.00 0.00 75 1018.8
20260902155030 20 235 19.3 25.7 0.00 0.00 0.00 73 1018.9
20260902154030 20 244 20.9 27.4 0.00 0.00 0.00 72 1018.9
20260902153029 20 230 22.5 29.0 0.00 0.00 0.00 72 1019.0
20260902152030 20 239 20.9 29.0 0.00 0.00 0.00 72 1019.0
20260902151030 20 247 22.5 30.6 0.00 0.00 0.00 73 1019.0
20260902150030 20 234 24.1 33.8 0.00 0.00 0.00 72 1019.1
20260902145030 20 263 24.1 29.0 0.00 0.00 0.00 72 1019.3
20260902144029 20 239 17.7 27.4 0.00 0.00 0.00 73 1019.3
20260902143030 20 225 16.1 22.5 0.00 0.00 0.00 74 1019.2
20260902142030 20 250 17.7 24.1 0.00 0.00 0.00 74 1019.2
20260902141030 20 232 14.5 20.9 0.00 0.00 0.00 74 1019.2
20260902140030 20 253 19.3 24.1 0.00 0.00 0.00 72 1019.2
20260902135030 20 240 20.9 27.4 0.00 0.00 0.00 71 1019.1
20260902134030 20 247 20.9 27.4 0.00 0.00 0.00 72 1019.1
20260902133030 20 243 19.3 25.7 0.00 0.00 0.00 71 1019.1
20260902132030 20 257 16.1 20.9 0.00 0.00 0.00 75 1019.2
20260902131030 20 252 17.7 22.5 0.00 0.00 0.00 73 1019.1
20260902130030 20 254 20.9 25.7 0.00 0.00 0.00 73 1019.3
20260902125030 20 241 19.3 25.7 0.00 0.00 0.00 73 1019.3
20260902124030 20 233 19.3 25.7 0.00 0.00 0.00 73 1019.2
20260902123030 20 243 16.1 20.9 0.00 0.00 0.00 75 1019.3
20260902122029 19 246 17.7 22.5 0.00 0.00 0.00 75 1019.3
20260902121029 19 246 19.3 24.1 0.00 0.00 0.00 75 1019.4
20260902120030 19 240 19.3 24.1 0.00 0.00 0.00 76 1019.3
20260902115030 19 248 22.5 29.0 0.00 0.00 0.00 76 1019.5
20260902114030 19 259 24.1 32.2 0.00 0.00 0.00 75 1019.6
20260902113032 19 233 22.5 32.2 0.00 0.00 0.00 75 1019.5
20260902112030 19 233 19.3 29.0 0.00 0.00 0.00 75 1019.5
20260902111029 19 240 24.1 35.4 0.00 0.00 0.00 75 1019.4
20260902110030 19 247 25.7 33.8 0.00 0.00 0.00 76 1019.6
20260902105030 19 250 24.1 35.4 0.00 0.00 0.00 75 1019.3
20260902104030 19 228 19.3 29.0 0.00 0.00 0.00 78 1019.3
20260902103030 19 226 20.9 29.0 0.00 0.00 0.00 78 1019.4
20260902102030 19 230 19.3 27.4 0.00 0.00 0.00 77 1019.4
20260902101030 20 222 19.3 27.4 0.00 0.00 0.00 77 1019.3
20260902100030 19 228 17.7 27.4 0.00 0.00 0.00 77 1019.2
20260902095029 19 218 17.7 29.0 0.00 0.00 0.00 80 1019.2
20260902094030 18 234 16.1 25.7 0.00 0.00 0.00 82 1019.1
20260902093030 18 228 16.1 25.7 0.00 0.00 0.00 83 1019.2
20260902092029 18 219 12.9 20.9 0.00 0.00 0.00 84 1019.1
20260902091031 18 209 9.7 16.1 0.00 0.00 0.00 85 1019.1
20260902090030 18 191 8.0 19.3 0.00 0.00 0.00 86 1019.0
20260902085030 17 199 9.7 17.7 0.00 0.00 0.00 87 1019.1